Location: Unspecified
(0.0000°N, 0.0000°E)
Time: 07:37:55
(UTC+00:00)

Vanguard 2 Rocket - Pass Details

Date: 25 January 2020
Orbit: 554 x 3326 km, 32.9° (Epoch: 21 September)

Event Time Altitude Azimuth Distance (km) Brightness Sun altitude
Rises 09:35:35 0° 333° (NNW) 4,346 10.0 47.1°
Reaches altitude 10° 09:38:56 10° 348° (NNW) 3,759 9.9 47.9°
Maximum altitude 09:46:58 24° 38° (NE) 3,588 10.3 49.6°
Drops below altitude 10° 09:58:35 10° 86° (E) 5,600 11.5 52.1°
Sets 10:05:05 0° 97° (E) 6,992 11.9 53.5°
